User: anonymous   Login
Location: Unspecified
(0.0000°N, 0.0000°E)
Time: 22:12:05
(UTC+00:00)
Language:

COSMOS 2429 - Orbit

View from above orbital plane
View from above orbital plane
View from above satellite
View from above satellite

Ground track
Ground track

The orbit data is extracted from the following two-line orbital elements,

1 32052U 07038A   24151.21105290  .00000089  00000-0  76095-4 0  9991
2 32052  82.9826  37.1357 0038733 162.2264 198.0257 13.75053816838855
Epoch (UTC): 30 May 2024 05:03:54
Eccentricity: 0.0038733
inclination: 82.9826°
perigee height: 953 km
apogee height: 1010 km
right ascension of ascending node: 37.1357°
argument of perigee: 162.2264°
revolutions per day: 13.75053816
mean anomaly at epoch: 198.0257°
orbit number at epoch: 83885

The dashed part of the orbit path shows where the satellite is in the earth's shadow,  

DLR